RH
35 34 36 37 39 45 50 56 64 75 89 99 103 103 102 99 95 95 97 98 97 95 95 92 86 82 78 74 73 73 73 73 72 72 73 73 73 72 71 69 67 65 64 64 63 63 62 61 61 61 60 58 56 55 54 54 54 53 52 47 43 40 38 36 32 26 20 17 16 17 17 18 18 17 16 16 17 17 17 18 19 20 20 21 21 21 21 20
29 26 25 28 30 33 38 45 53 62 71 85 94 97 101 100 96 96 97 99 100 99 98 93 87 83 79 76 74 72 71 71 72 72 73 74 74 74 74 75 74 72 70 68 67 66 65 64 63 62 60 58 57 57 57 57 55 51 47 43 41 39 36 30 23 19 17 17 18 18 18 18 17 17 17 18 18 18 19 19 20 21 21 22 21 21 20 19
22 18 16 18 22 26 29 34 43 53 59 67 76 82 90 95 97 97 96 98 98 100 98 93 88 85 81 79 76 73 72 72 74 76 77 78 79 80 81 80 79 77 74 72 70 69 68 67 66 64 63 63 62 61 59 55 50 45 43 42 40 36 28 22 18 17 17 18 19 19 18 17 17 18 19 19 19 20 19 19 20 21 22 22 21 21 20 19
17 14 11 10 13 18 22 27 34 44 52 56 60 66 73 80 87 91 93 94 96 98 97 94 91 88 86 84 81 80 79 80 83 84 84 85 84 84 82 81 79 76 74 74 74 73 72 71 69 68 67 65 62 58 54 49 46 45 45 42 35 28 22 18 17 17 19 19 19 19 18 19 20 20 21 21 20 20 19 20 21 22 22 22 22 21 21 21
22 18 14 10 8 12 16 22 28 36 44 52 56 57 61 66 71 77 81 84 87 92 94 95 95 95 94 92 91 89 88 90 91 90 88 88 85 83 81 79 77 75 76 77 77 76 74 73 71 68 64 60 56 53 50 49 48 47 43 36 27 21 18 17 18 19 19 20 20 20 20 21 22 22 22 22 21 20 20 21 22 22 22 22 22 22 22 22
27 22 18 13 9 9 12 17 23 30 37 47 54 57 58 59 61 64 68 70 73 78 83 88 92 94 95 96 96 95 94 94 93 91 88 86 84 83 81 79 79 80 80 80 78 76 73 70 66 62 58 55 53 52 52 52 50 45 36 28 21 18 18 18 19 20 20 20 21 23 24 25 24 24 23 22 22 22 22 22 23 22 22 23 22 22 22 22
32 29 22 15 12 10 10 14 20 26 32 41 50 57 61 60 63 67 65 64 65 68 71 75 80 83 86 89 91 91 91 90 88 86 83 83 83 83 83 84 86 87 85 83 79 74 70 65 61 59 57 56 55 56 57 54 47 37 28 21 19 19 20 21 22 22 22 22 24 26 28 27 26 25 24 23 23 23 24 24 24 23 23 23 23 22 22 22
42 39 28 19 17 14 12 13 18 25 29 36 44 54 64 68 74 77 69 64 63 62 62 66 71 76 78 80 82 83 83 84 83 82 81 83 84 85 88 92 93 90 86 81 76 71 68 65 62 61 60 60 60 61 57 49 39 29 22 20 20 21 22 23 24 24 24 25 26 28 29 28 27 25 24 24 24 25 25 26 25 24 23 23 23 23 23 23
46 41 33 28 23 19 17 15 19 25 29 34 40 52 69 80 84 82 74 69 63 59 59 61 65 69 72 74 76 76 77 79 80 81 83 86 90 93 95 96 93 89 84 80 77 74 72 68 65 64 65 65 64 61 53 41 30 23 20 21 22 23 24 25 26 27 27 27 28 29 29 28 27 26 26 25 25 26 27 27 26 24 23 24 24 25 25 25
50 42 41 39 32 29 26 23 24 27 29 33 41 55 72 84 90 88 81 74 66 63 63 64 66 66 67 69 69 70 72 76 80 84 89 94 97 99 99 97 93 91 89 86 82 79 74 69 69 71 70 68 65 57 44 31 24 21 22 23 24 25 27 27 28 29 29 31 32 31 29 28 28 27 27 26 26 28 29 28 26 25 25 26 27 27 27 26
57 54 54 50 37 33 32 26 26 26 27 31 44 60 74 85 92 98 98 85 68 64 66 68 69 67 65 67 69 73 77 82 89 94 99 102 103 102 102 100 98 97 94 88 83 79 75 74 76 76 71 68 62 48 33 24 22 23 24 25 26 28 29 30 30 30 33 35 35 33 30 29 29 29 27 27 28 29 30 29 28 28 28 28 29 28 28 27
60 67 70 71 60 48 37 30 33 36 36 38 47 60 73 85 92 98 100 87 70 67 68 69 69 67 68 73 77 83 89 95 102 104 105 107 107 106 105 102 101 99 93 88 85 82 81 83 82 75 72 67 52 35 25 23 23 24 26 28 29 30 31 31 31 34 37 38 37 36 33 29 30 31 29 29 30 30 29 29 29 29 30 30 30 30 29 28
56 69 77 92 94 74 51 45 53 56 53 53 60 69 78 85 86 83 81 81 79 78 75 72 72 72 75 80 85 91 96 102 105 104 104 105 106 107 106 104 102 99 94 91 89 87 89 87 80 75 71 58 38 26 23 24 25 26 28 30 31 32 33 34 36 39 40 40 38 37 34 29 29 32 31 31 30 29 28 29 30 31 32 32 32 32 30 29
50 63 74 89 97 88 75 69 74 78 74 70 71 78 83 84 83 79 77 81 85 85 80 76 74 75 81 86 90 94 96 98 97 97 97 98 100 105 107 106 103 100 97 97 95 94 93 87 80 76 64 44 28 24 24 25 26 28 29 31 32 33 35 39 43 44 41 40 37 35 34 30 29 33 32 30 29 28 29 30 32 33 33 34 33 32 31 30
50 55 66 79 84 88 89 77 71 76 79 81 81 82 83 84 85 82 82 85 89 89 84 81 80 82 86 89 92 94 93 91 89 89 90 92 98 103 106 104 101 100 101 101 98 96 92 85 80 70 50 33 25 24 25 26 27 29 30 31 33 35 40 44 44 43 39 36 33 31 34 32 30 33 32 30 29 29 30 31 33 35 35 35 34 33 31 30
58 52 57 69 73 79 90 84 76 72 69 74 79 78 77 81 85 84 87 95 100 99 95 94 93 93 94 95 97 94 89 87 85 85 88 93 99 102 102 101 101 103 103 101 97 94 89 84 77 58 36 27 25 25 26 27 28 29 30 33 36 39 42 43 41 38 35 32 30 31 36 35 31 32 32 31 30 31 33 33 34 36 36 35 34 32 31 30
63 59 56 60 65 78 95 98 95 90 82 78 75 75 80 83 88 94 97 102 105 106 106 102 99 99 100 99 96 90 85 84 85 88 93 98 101 101 102 103 105 103 99 96 93 91 90 81 65 44 29 25 25 26 27 27 28 30 32 36 40 39 38 38 36 33 32 32 32 33 39 38 33 32 33 34 34 35 36 35 36 37 37 35 34 32 31 31
66 63 60 59 63 76 93 98 99 99 98 94 84 79 84 84 82 89 93 92 96 100 99 97 97 99 101 99 94 90 89 90 93 97 100 102 103 103 103 103 102 98 96 96 94 94 88 69 46 32 27 26 27 27 28 29 31 33 35 36 37 36 34 34 33 32 33 35 35 36 40 39 34 33 35 38 38 38 38 36 37 37 37 35 34 33 32 31
69 65 64 62 61 68 81 91 98 98 96 99 95 87 89 90 83 84 88 90 94 96 95 97 99 101 101 101 98 95 97 99 101 102 100 98 98 98 98 98 98 98 100 101 99 92 73 47 32 28 28 28 28 29 30 31 32 33 34 33 35 38 37 34 34 35 37 39 39 39 41 40 37 37 39 40 39 39 39 37 37 38 37 35 34 33 32 31
70 66 66 64 61 61 68 77 89 97 96 96 98 98 98 100 96 94 95 98 100 100 100 99 99 100 99 99 100 99 101 102 99 94 90 89 91 96 99 100 100 101 101 102 97 80 53 34 29 29 29 29 29 30 30 31 31 33 34 35 37 40 41 40 38 40 40 41 42 43 45 44 40 41 43 42 40 40 39 38 38 37 37 36 34 33 32 30
68 64 63 63 61 59 60 65 74 88 99 100 99 102 103 101 101 102 100 100 100 100 100 99 97 98 97 98 101 102 103 100 92 87 88 93 97 102 104 104 104 103 102 99 84 59 37 30 30 30 30 29 29 30 30 31 33 35 37 40 40 42 45 45 44 44 44 44 45 45 48 48 44 44 46 44 41 41 40 39 38 38 37 35 34 32 31 29
64 58 56 56 55 55 56 58 61 70 89 101 102 100 101 100 101 101 100 100 100 99 101 101 99 99 100 102 102 101 98 92 87 91 99 102 101 103 104 104 104 105 100 84 59 38 31 31 30 30 30 30 30 31 33 35 36 39 41 43 44 45 48 50 50 48 45 44 45 45 48 52 49 46 46 44 43 42 40 39 39 38 36 34 34 32 29 29
55 49 47 46 46 48 50 53 57 58 68 88 102 102 99 99 100 100 100 101 100 100 101 101 99 101 102 103 100 96 89 85 88 97 103 102 101 102 103 102 104 101 86 60 39 31 31 30 30 30 30 31 32 33 35 38 40 42 44 45 46 47 47 50 51 50 46 43 42 43 48 55 52 46 46 45 44 42 40 40 38 36 36 36 33 31 33 39
43 39 37 37 38 40 42 47 52 55 57 67 82 96 102 100 99 101 101 99 99 99 99 100 101 101 102 102 96 88 84 87 93 99 102 102 101 101 102 103 101 88 64 42 32 31 31 31 31 32 32 34 34 36 37 39 41 43 44 45 46 47 47 47 48 48 47 45 44 45 48 54 53 46 45 45 43 42 40 38 37 37 37 35 35 41 49 54
33 32 30 31 33 34 37 41 47 53 55 56 66 88 103 104 100 100 99 98 98 98 100 101 101 101 101 97 89 84 87 92 96 101 102 101 103 104 104 102 91 70 47 34 31 32 32 32 32 33 35 35 36 38 39 41 43 44 45 46 46 48 49 48 46 45 46 48 48 47 45 48 52 47 42 43 42 40 38 36 37 38 36 40 50 59 60 55
27 26 26 28 30 32 34 38 45 50 55 70 86 94 99 101 100 99 98 99 100 101 100 100 101 102 97 88 84 89 94 95 99 102 102 104 105 104 102 95 77 54 37 32 32 33 33 33 33 35 35 36 38 39 41 42 44 46 47 48 49 48 47 47 46 45 47 48 47 45 40 41 48 45 40 41 40 38 37 37 37 39 45 57 66 65 58 54
23 23 25 28 30 33 36 41 48 51 62 86 101 101 98 96 96 98 99 101 100 100 100 100 102 97 89 85 91 98 97 93 96 100 101 105 104 102 98 84 62 41 32 32 34 34 34 34 34 35 36 38 40 41 43 43 43 46 47 47 47 45 45 45 45 46 46 46 45 44 40 39 44 43 39 39 39 37 38 40 44 53 64 70 67 59 55 55
21 24 26 29 32 35 40 47 53 58 74 93 100 102 98 90 92 100 102 101 99 99 101 101 97 91 88 93 99 101 93 89 94 100 102 103 102 101 91 71 49 35 32 34 34 35 35 34 36 37 38 39 40 42 43 43 43 43 42 42 42 43 44 44 44 45 45 47 47 45 42 40 42 41 38 37 38 41 46 55 65 72 73 68 59 53 53 53
20 23 27 30 35 40 45 51 60 76 93 100 100 102 96 90 97 104 102 100 99 100 100 96 93 94 97 100 102 97 87 87 94 99 101 102 101 96 82 62 42 32 33 34 34 36 35 35 37 37 38 39 40 41 42 42 40 38 38 39 40 42 43 44 45 46 46 48 47 46 43 41 40 39 37 39 47 54 64 75 79 76 69 59 51 48 49 46
19 23 28 33 38 46 52 59 76 96 102 98 98 100 99 100 102 102 100 100 100 101 98 95 97 101 101 101 102 93 84 89 95 96 101 102 100 92 77 57 39 32 34 34 35 36 35 36 36 37 39 40 41 42 41 39 37 37 38 38 40 41 42 45 48 48 48 48 47 45 42 38 38 40 43 52 61 68 75 81 78 70 61 50 43 41 39 34
20 25 31 37 42 48 57 71 88 99 96 91 94 98 101 103 100 99 100 99 99 101 100 100 101 101 101 102 101 90 84 92 96 98 101 102 99 91 76 55 38 34 35 35 37 37 37 37 37 39 41 41 42 41 39 37 36 37 37 38 41 43 44 48 49 49 48 46 44 41 38 39 44 52 59 65 67 69 72 74 72 61 48 39 35 33 34 35
21 28 34 38 43 51 63 77 87 91 92 93 96 99 102 101 100 100 100 98 99 102 101 102 101 100 101 103 97 87 87 95 99 99 101 101 99 91 76 57 40 35 36 37 38 38 39 40 39 41 41 41 41 39 37 37 37 39 40 41 43 43 44 46 45 46 43 40 39 39 42 48 59 72 72 65 65 65 62 62 60 46 34 32 35 39 47 52
27 33 36 40 54 72 84 91 93 94 97 98 99 102 101 99 100 100 99 100 101 100 97 97 100 100 101 102 94 87 92 99 101 100 100 101 98 91 79 59 41 36 36 37 39 40 42 43 42 42 42 41 40 39 40 39 40 43 44 45 44 43 42 40 40 39 34 34 38 45 55 64 80 88 71 60 65 60 49 48 45 34 32 39 46 54 61 64
35 39 47 62 81 95 99 97 97 99 100 100 101 102 99 98 99 99 100 100 97 96 96 99 102 100 102 102 91 87 95 101 101 100 101 102 98 91 79 57 41 38 38 38 40 41 44 44 44 43 43 42 42 42 43 43 43 44 45 47 46 45 42 37 36 31 29 37 45 56 72 85 99 90 61 57 62 47 38 41 40 39 44 49 52 57 63 66
39 48 68 88 93 95 100 100 100 101 101 101 100 100 101 98 97 96 96 96 96 98 100 101 100 101 104 99 86 87 98 101 102 101 101 102 98 90 76 54 41 39 38 39 40 41 44 46 46 45 45 45 45 46 47 46 45 44 46 47 44 43 39 35 32 31 35 45 55 72 85 97 109 88 57 55 49 35 40 45 45 49 51 50 52 55 60 66
46 61 83 95 89 88 96 99 99 98 98 99 99 100 99 93 93 97 96 99 101 101 101 100 102 105 104 94 90 96 100 100 102 101 100 101 98 89 72 51 41 39 39 40 40 41 43 45 49 49 49 48 46 47 48 48 45 44 44 43 40 39 35 34 35 38 46 53 66 81 79 86 101 82 55 46 35 37 50 48 48 53 51 51 53 53 54 59
54 69 87 96 94 93 95 95 97 99 99 99 98 99 97 93 97 101 100 102 102 100 102 103 104 104 98 94 99 101 99 100 103 102 100 100 97 85 63 45 40 39 39 40 41 42 42 45 52 54 52 50 49 48 49 49 45 42 42 40 38 36 35 39 41 44 53 59 68 69 58 73 88 64 43 38 34 47 56 50 54 59 55 55 53 50 50 51
65 77 91 100 100 97 95 93 96 100 99 96 95 98 101 100 101 101 100 102 101 101 102 103 103 99 96 100 103 99 98 102 103 102 100 101 97 80 55 41 39 39 40 41 42 43 42 44 51 56 56 52 49 48 48 46 42 40 40 39 39 40 42 45 45 50 58 57 56 47 45 74 79 44 31 36 40 54 57 57 67 68 64 60 52 48 48 50
80 90 98 102 99 96 96 97 99 100 97 96 99 101 102 100 100 101 101 101 101 101 101 103 103 100 100 104 100 97 100 102 102 100 100 101 94 71 47 38 39 40 41 42 43 43 42 42 47 54 55 50 47 46 44 42 40 39 41 42 45 47 48 48 50 57 56 49 45 34 40 73 69 36 33 39 45 59 60 63 72 73 71 64 52 50 50 53
89 96 102 104 101 100 100 100 100 100 99 100 101 100 100 101 101 100 100 100 99 100 102 104 103 103 104 101 96 99 101 100 100 99 101 102 86 57 40 38 40 40 41 42 42 42 41 40 42 47 49 45 43 42 40 40 41 42 46 49 51 53 52 51 52 54 48 44 42 28 36 68 63 41 42 45 52 64 63 64 73 76 75 67 57 55 54 56
95 96 103 104 98 96 99 101 101 100 102 102 101 101 101 101 100 99 99 100 100 101 103 105 104 102 99 96 98 99 96 96 99 100 104 99 71 44 38 40 39 40 40 40 41 39 38 37 38 42 43 40 40 41 41 44 46 49 52 55 57 58 56 50 46 46 43 40 37 28 38 69 72 54 50 51 58 68 65 66 73 79 80 71 61 58 55 56
100 97 101 100 90 83 88 96 99 98 99 97 95 97 99 99 100 101 101 101 100 101 104 105 102 97 95 97 100 97 94 97 101 104 104 85 54 38 39 40 39 39 38 38 38 37 35 34 35 37 38 39 42 44 45 49 52 55 59 62 64 60 51 44 42 42 37 32 35 34 40 68 80 65 53 54 62 67 66 67 73 80 82 72 61 57 55 56
97 96 94 93 90 86 86 90 93 95 96 95 95 98 101 103 102 102 103 102 101 101 104 104 98 93 94 97 97 98 98 98 103 107 93 62 41 39 40 38 37 37 36 35 36 34 33 34 35 37 40 43 46 49 53 57 60 64 69 68 61 50 42 43 43 37 30 32 42 41 39 60 78 68 56 57 61 62 62 66 72 78 79 70 61 57 57 59
89 90 88 92 98 100 98 96 97 101 102 102 103 103 103 102 101 102 103 101 102 104 103 96 90 91 95 96 96 100 98 97 102 96 68 43 38 40 37 36 37 35 35 34 34 34 35 37 39 41 44 47 52 56 59 62 66 70 70 60 49 43 42 44 39 32 31 39 48 46 40 56 74 65 55 58 60 59 62 67 73 80 81 73 63 60 61 63
88 87 90 96 99 100 101 100 102 105 103 102 103 101 100 100 101 101 101 101 104 102 95 90 91 96 98 98 99 100 100 100 91 69 45 37 39 37 35 36 36 34 36 35 36 38 39 42 46 48 51 54 56 57 59 63 66 64 58 48 42 41 41 40 36 35 36 40 49 50 41 52 68 62 55 61 65 62 64 69 76 86 89 79 67 63 64 62
95 94 96 99 98 99 102 102 103 104 103 101 101 100 100 101 101 101 103 103 99 91 90 95 98 99 100 100 100 100 102 95 70 45 37 37 36 35 35 36 35 37 39 39 40 43 45 50 53 54 57 61 64 66 69 67 61 54 48 42 39 39 40 40 40 41 39 39 49 53 44 45 58 58 56 62 63 61 63 67 72 83 88 77 63 60 60 58
94 98 100 101 101 103 104 102 102 103 104 102 100 100 102 102 102 103 101 95 90 90 97 100 97 97 100 100 99 101 95 74 47 36 36 35 34 35 36 37 39 41 41 43 47 49 48 51 53 55 62 70 75 76 71 61 53 48 42 38 39 43 43 44 44 45 45 45 48 52 49 48 52 55 57 59 59 61 65 67 70 78 78 65 55 55 56 57
91 95 97 98 101 105 107 105 102 102 103 101 100 103 105 102 99 98 95 92 93 98 99 98 97 98 98 96 96 91 72 47 36 36 36 34 35 37 38 40 42 43 47 50 51 47 46 51 60 68 75 77 75 68 59 51 46 41 36 37 43 46 45 45 49 52 53 50 48 50 53 55 56 57 59 61 62 62 62 63 67 71 67 57 54 57 58 60
80 84 86 88 95 102 104 103 102 101 101 101 103 105 101 95 92 93 96 99 100 99 97 97 99 98 97 96 85 66 45 35 36 36 34 36 38 39 41 43 46 50 52 49 47 49 57 68 76 78 74 68 62 56 50 45 39 35 35 40 46 48 47 49 53 57 55 52 52 53 55 58 61 62 61 63 62 58 57 59 63 66 62 57 58 60 61 63
66 70 72 77 88 100 103 103 103 103 103 105 107 102 94 92 94 98 100 99 99 100 98 98 99 98 93 81 60 42 35 35 35 35 36 40 40 41 45 49 51 50 47 49 58 69 76 78 76 70 64 59 53 48 44 39 35 35 38 44 49 50 51 52 57 62 61 55 56 58 58 61 66 65 62 60 57 54 55 59 65 68 65 61 63 65 65 66
58 61 63 67 80 96 104 105 102 102 104 105 100 95 94 97 99 100 100 98 98 100 101 100 97 88 71 52 38 33 34 34 35 37 39 40 43 48 51 49 47 48 56 68 78 80 78 73 67 59 54 49 44 42 43 41 37 37 41 48 53 53 52 56 62 67 64 58 60 64 63 64 64 60 57 56 56 58 61 68 76 77 69 66 68 68 67 66
50 55 59 66 79 93 101 103 101 99 100 97 93 95 99 100 99 99 101 101 99 98 94 88 76 59 43 34 32 34 35 36 38 39 42 46 50 50 46 46 53 64 74 79 79 77 72 62 52 43 40 41 40 40 44 43 40 42 48 53 55 54 54 58 66 71 70 66 66 66 64 63 61 58 57 58 62 65 67 72 80 78 70 67 67 67 68 69
Wind_Speed
21 25 30 34 39 44 49 51 50 49 48 47 45 44 44 44 43 43 42 42 42 42 42 43 43 42 42 42 41 41 41 40 40 40 41 41 42 42 43 45 46 48 49 50 51 51 52 53 53 54 55 55 56 57 58 59 60 60 60 60 60 59 58 57 55 54 51 49 47 46 44 43 43 43 43 43 44 45 46 47 49 50 51 52 53 53 54 55
22 25 28 32 35 39 44 49 50 50 49 48 46 44 44 43 43 43 43 43 42 42 42 43 43 42 42 42 42 41 41 40 40 41 41 41 42 43 43 44 45 47 48 49 49 50 51 52 53 54 55 56 57 57 58 58 58 58 58 58 57 56 55 53 51 49 47 45 44 43 43 43 43 42 43 44 45 46 47 48 49 50 51 52 53 54 54 55
22 24 28 31 33 36 40 43 47 50 50 49 46 45 45 44 43 43 43 43 42 42 43 43 42 42 42 42 42 41 41 40 40 40 41 41 41 42 42 43 44 46 47 48 49 50 50 52 52 53 54 55 55 55 56 56 57 57 56 55 54 53 51 49 47 45 44 43 43 43 43 42 42 43 44 46 47 48 49 49 50 50 51 52 53 54 55 56
20 22 25 28 30 34 37 39 42 47 50 49 47 47 46 45 44 44 44 43 42 43 43 42 41 41 41 41 41 40 40 39 39 39 39 40 40 41 42 43 44 45 46 47 48 49 50 50 51 52 53 53 54 55 55 55 55 55 54 53 52 49 47 45 44 42 42 42 42 42 42 42 43 45 46 48 49 50 51 51 51 51 52 53 54 55 55 56
16 17 20 23 27 32 35 37 39 43 46 48 48 48 47 45 44 45 45 43 42 42 42 41 40 40 39 40 39 39 38 38 38 38 38 39 40 40 41 43 44 45 46 46 47 48 49 49 50 51 52 53 54 54 54 54 54 53 52 50 48 47 45 43 42 41 41 41 42 43 43 44 45 47 48 50 51 52 52 52 52 53 53 54 55 55 56 57
11 11 14 18 22 28 34 36 38 40 42 44 47 47 47 45 43 44 45 43 42 42 41 39 39 38 38 38 38 38 37 37 37 37 38 38 39 40 41 43 44 44 45 46 47 48 48 49 50 51 52 53 53 53 54 53 53 51 49 47 46 44 43 42 41 40 40 40 41 43 45 46 48 49 50 52 53 54 54 54 55 55 55 56 56 56 57 58
7 7 9 13 17 23 30 34 36 38 39 41 44 45 45 44 42 44 44 42 42 42 40 39 38 37 37 37 37 37 36 37 37 37 38 38 39 40 41 42 43 43 44 45 46 47 48 49 51 52 52 53 53 53 53 52 50 48 46 45 44 42 41 41 40 40 40 41 42 43 46 48 50 51 52 53 54 54 56 56 57 57 57 56 56 57 58 59
7 6 8 11 14 20 27 32 35 36 37 39 41 42 42 41 42 44 42 40 41 41 40 38 37 37 36 37 36 36 36 36 37 37 38 38 39 39 40 41 42 43 43 44 46 47 48 50 51 51 52 52 53 52 51 49 47 45 44 43 42 41 40 40 41 41 42 42 42 44 46 49 51 53 54 54 54 55 57 57 58 58 58 58 58 58 60 61
8 8 8 10 14 19 24 29 33 35 36 38 39 40 40 40 40 41 39 37 39 39 38 37 37 36 36 36 35 35 35 36 36 36 37 37 37 38 39 40 41 42 43 45 46 47 48 50 51 51 52 52 51 50 48 46 45 43 42 41 40 40 40 41 42 43 43 44 44 45 47 49 52 54 54 54 55 56 57 58 59 59 59 59 60 61 62 64
8 9 9 11 15 19 23 27 31 34 36 37 37 38 38 38 36 35 35 37 38 37 36 35 34 35 35 35 34 35 35 35 35 35 35 35 36 37 38 39 41 42 43 44 46 47 48 50 51 51 51 51 50 48 46 44 43 42 41 40 40 40 41 41 43 44 44 45 47 47 48 50 53 54 54 55 56 57 58 59 60 60 61 61 62 64 65 66
8 9 10 13 15 19 23 26 30 32 34 35 36 37 37 36 33 29 31 36 38 35 33 32 32 33 33 33 33 33 33 33 33 33 34 34 35 36 37 39 41 42 43 45 46 47 48 49 50 50 50 49 48 45 43 42 41 41 40 40 40 41 42 43 44 45 46 47 49 50 50 51 54 55 55 56 57 58 59 60 61 62 63 64 65 66 67 69
9 10 11 13 15 17 20 22 24 28 29 30 32 35 36 35 34 32 33 36 36 32 31 31 31 32 32 32 31 32 32 32 32 33 33 34 35 36 37 39 41 43 44 45 46 47 48 48 49 49 49 47 45 43 42 41 40 40 40 40 41 42 43 44 45 46 47 49 51 52 54 53 53 55 56 57 58 59 60 61 63 63 65 66 67 69 70 71
7 11 13 15 18 19 18 17 19 23 26 28 29 31 33 35 36 36 35 35 33 30 30 30 30 31 30 31 31 31 32 32 32 33 33 34 35 36 37 39 41 42 43 44 45 46 47 48 48 48 46 44 42 41 40 40 40 39 39 40 42 43 44 46 47 48 49 51 51 53 56 55 53 55 57 58 59 60 62 63 64 65 66 67 69 71 72 73
6 10 14 18 21 20 19 18 19 22 24 26 27 29 31 33 34 34 33 32 31 30 30 31 31 30 30 30 31 31 32 32 33 33 34 34 35 36 38 39 40 41 42 43 44 46 46 47 47 46 44 42 41 40 40 40 39 39 40 41 42 43 45 47 48 50 51 51 51 53 57 57 54 56 58 59 61 63 64 65 66 67 68 70 71 73 74 75
8 9 13 17 21 21 21 21 22 23 24 25 27 28 30 31 32 32 30 29 30 30 30 30 30 29 29 30 30 31 32 32 33 33 34 34 35 36 37 38 39 40 41 43 44 46 47 47 46 43 42 41 40 40 39 39 39 39 40 41 43 43 45 47 49 51 51 51 52 53 57 58 56 57 60 62 64 66 67 68 68 69 71 72 73 75 76 77
11 10 11 15 19 20 21 22 22 23 23 24 25 27 28 29 30 30 29 28 28 29 28 28 28 29 29 29 30 31 32 32 32 32 33 33 33 34 36 37 39 40 42 44 45 46 46 45 43 41 40 40 40 39 39 39 39 40 40 41 43 44 46 48 49 50 51 51 53 55 58 60 59 60 64 66 68 69 70 71 71 72 73 74 76 77 78 80
15 13 13 14 17 20 21 22 24 26 26 25 25 25 25 26 27 28 27 26 27 27 27 27 27 27 28 29 30 31 31 31 30 30 30 30 31 33 36 38 40 42 43 45 46 46 45 43 42 41 40 40 40 40 39 39 40 40 41 42 45 46 46 49 49 50 51 53 56 57 59 62 62 63 67 69 71 72 72 73 73 74 75 76 78 79 80 82
18 17 16 16 17 20 23 25 26 27 29 29 28 26 25 25 26 26 25 24 24 24 24 24 24 25 26 28 29 29 29 28 27 27 28 30 32 35 38 40 41 43 44 45 45 44 43 41 41 40 40 40 40 40 40 40 40 41 42 43 46 48 48 49 50 51 53 56 59 59 61 65 66 67 68 70 72 73 74 74 75 76 77 79 80 82 83 83
21 20 19 19 19 21 24 27 27 27 27 28 28 24 21 23 25 23 22 21 20 21 21 22 23 24 26 27 28 28 28 28 28 29 30 33 35 37 39 40 41 43 44 44 43 42 41 40 40 40 40 40 40 40 40 41 41 42 44 45 47 50 51 50 51 53 55 59 62 63 65 68 69 70 71 72 73 74 75 76 77 78 80 81 83 84 84 84
24 23 22 23 22 23 25 27 29 30 29 28 27 24 22 25 27 25 23 23 23 23 23 24 27 27 28 30 29 29 29 29 30 31 33 35 37 38 39 40 41 43 42 41 40 40 40 39 39 39 39 40 40 41 41 42 43 44 46 47 48 50 52 53 53 55 57 60 64 65 69 71 70 72 73 73 74 75 77 78 79 81 82 84 85 85 85 85
25 25 24 25 25 26 26 27 29 31 32 31 28 27 29 30 29 28 27 26 27 27 27 29 31 31 30 29 28 28 29 30 32 34 36 37 37 38 39 40 42 42 41 40 40 40 40 39 39 39 40 40 41 42 42 43 44 46 47 49 50 50 53 55 56 58 60 61 64 66 70 73 72 72 74 74 75 76 78 80 81 83 85 85 85 85 86 86
26 26 26 26 27 28 28 29 29 29 32 34 32 32 33 33 31 31 30 29 29 29 30 31 30 28 26 25 26 28 29 32 34 37 37 37 37 38 40 41 41 41 40 40 40 39 39 39 39 40 40 41 41 42 43 44 46 47 49 50 51 52 54 57 59 61 62 62 64 66 70 74 73 72 74 76 77 78 80 81 83 84 85 85 85 86 86 86
27 27 27 28 29 30 31 31 30 30 30 33 35 37 36 35 34 34 33 34 33 32 30 28 25 23 24 26 28 30 31 34 36 37 37 37 38 39 40 41 40 40 41 41 40 39 39 39 40 40 40 41 42 43 44 46 47 48 50 51 52 54 54 57 60 63 64 63 64 65 67 73 74 73 75 77 78 80 82 83 84 84 84 85 85 85 84 84
27 28 28 29 30 31 32 32 32 31 29 31 34 37 39 39 38 38 37 35 30 27 25 24 23 24 26 28 30 32 34 36 37 36 35 36 37 38 39 39 40 41 41 41 40 40 40 40 40 40 41 42 43 44 45 46 48 49 50 52 53 55 56 58 59 62 65 66 66 65 65 70 76 75 75 78 80 82 83 84 84 83 83 84 84 83 82 82
28 29 29 29 30 32 32 33 32 31 30 29 29 33 37 39 39 36 31 26 22 22 23 23 25 26 28 30 32 33 35 36 35 34 34 34 35 37 38 39 40 41 41 41 40 40 40 40 41 41 42 43 44 45 46 47 49 50 51 53 54 56 58 59 60 62 65 67 68 68 66 68 76 77 76 80 82 83 84 83 83 83 83 82 81 81 81 80
29 29 29 29 30 31 31 32 31 31 29 25 23 28 32 31 29 24 20 20 22 24 26 26 27 29 31 32 33 33 35 36 34 33 34 35 36 37 39 40 41 41 41 41 41 41 41 41 42 42 43 44 45 46 47 48 49 51 53 54 55 57 59 61 63 64 66 68 69 71 70 69 75 79 79 81 84 83 83 82 82 81 79 78 78 79 79 77
29 28 28 28 29 30 30 30 30 29 27 25 26 30 28 22 18 17 20 24 26 27 28 29 30 32 33 33 33 34 36 35 33 34 35 36 37 38 40 41 42 42 42 41 41 42 42 43 43 44 45 45 46 47 48 50 51 52 54 56 57 59 60 62 64 65 66 68 70 73 74 73 76 81 81 80 82 82 82 81 79 77 75 76 77 77 76 72
28 27 27 27 28 29 29 28 27 27 26 27 30 30 26 19 17 21 26 28 28 29 30 31 32 33 33 33 33 35 35 34 34 35 36 37 38 39 41 42 42 42 42 42 42 43 43 44 44 45 46 47 48 49 50 51 53 54 55 57 59 60 61 62 64 65 67 69 72 75 78 78 78 82 81 79 80 80 79 77 74 74 75 76 76 74 70 66
26 26 26 27 27 28 27 27 26 25 25 27 30 28 23 21 23 28 31 31 30 30 30 31 32 32 32 33 35 36 35 34 35 36 37 38 39 40 42 43 43 42 42 43 43 44 45 45 46 47 47 48 49 50 52 53 55 56 57 58 59 60 61 63 64 66 67 70 74 77 81 82 80 81 80 77 76 75 73 73 73 74 75 74 72 68 62 59
25 25 25 26 27 27 26 26 25 26 29 30 30 29 26 26 29 32 33 32 31 30 30 31 32 32 33 35 36 36 35 35 37 38 39 39 40 42 43 43 44 43 44 44 44 45 46 47 48 48 49 50 51 52 53 55 57 58 58 59 60 61 62 64 66 68 69 71 74 78 82 83 81 80 78 73 72 70 70 71 73 74 74 71 65 58 54 52
23 24 25 26 27 27 27 27 27 29 29 25 22 23 25 27 29 31 30 29 29 29 30 31 33 34 35 36 36 36 35 36 38 39 40 41 42 43 44 44 45 44 45 45 46 47 48 49 50 50 52 52 53 55 56 57 58 59 60 61 61 62 63 65 67 69 70 72 74 76 79 81 81 80 75 71 70 70 69 69 71 72 68 63 56 50 49 50
21 23 24 25 26 26 27 26 26 25 20 16 17 23 26 27 28 28 27 27 29 30 31 33 34 34 35 35 36 35 35 38 39 40 41 42 43 44 45 46 46 45 46 46 47 48 50 51 52 53 54 55 56 57 57 59 60 61 63 63 64 65 65 66 67 69 70 71 72 73 75 78 79 78 74 71 72 71 68 67 66 64 58 52 49 48 50 52
19 21 22 23 24 25 25 23 20 17 15 17 23 30 32 30 28 27 27 28 30 32 33 34 34 34 34 35 35 35 37 39 41 41 42 43 44 46 47 47 47 47 47 48 48 49 50 53 54 55 56 57 57 58 59 60 61 63 65 66 68 68 69 68 68 69 68 68 69 71 74 76 75 76 74 70 71 70 65 60 57 54 50 48 49 50 52 54
19 20 21 22 25 25 22 19 17 17 20 24 30 34 34 31 28 28 29 30 32 33 33 33 33 34 34 36 36 36 38 40 42 43 43 45 46 47 48 48 48 48 49 49 49 50 51 53 55 56 57 58 59 60 61 62 63 65 67 69 70 71 72 72 71 70 67 63 65 69 72 75 76 77 73 67 68 65 55 49 50 50 49 49 50 52 53 55
19 20 22 25 26 24 21 19 20 23 26 30 33 34 32 30 28 29 31 32 32 32 32 32 33 34 36 38 37 37 38 40 43 44 45 46 47 48 49 48 49 49 50 50 51 51 51 53 56 57 58 59 60 61 63 64 65 66 68 70 71 71 73 73 71 70 66 61 62 65 68 72 77 77 71 65 62 55 46 45 49 50 51 52 53 53 54 56
19 22 25 27 27 24 24 25 27 29 30 32 31 30 28 27 28 30 31 31 30 30 31 32 34 36 38 39 38 38 40 41 43 44 46 47 48 49 49 49 49 50 51 51 52 52 52 53 55 57 59 60 61 63 64 66 67 67 68 70 71 71 72 72 70 67 65 61 61 63 63 69 76 72 66 61 54 47 45 49 51 52 54 54 55 56 56 57
20 24 27 28 28 25 22 23 25 28 29 27 26 25 27 28 30 31 31 29 29 31 33 34 35 37 39 39 38 40 42 43 45 46 47 48 49 49 50 49 50 51 52 52 53 53 53 53 55 58 60 61 63 64 65 68 68 68 69 70 71 71 71 71 68 64 64 61 60 61 58 66 73 63 55 53 48 46 50 53 54 56 58 58 59 59 59 60
20 23 25 27 27 24 20 18 20 22 23 23 24 26 29 29 30 30 30 31 33 34 35 36 38 39 40 39 40 42 43 45 46 47 48 49 50 50 50 50 51 51 52 53 53 54 54 53 54 58 61 62 63 64 65 67 68 68 69 71 72 72 70 70 67 65 65 62 60 56 50 62 69 54 46 47 46 50 54 56 58 60 61 62 62 62 63 63
20 22 25 27 26 23 21 21 21 22 23 24 26 27 28 28 29 30 32 34 35 36 37 38 39 40 40 40 42 44 45 46 48 49 49 50 50 50 50 50 51 52 53 54 54 54 54 53 53 57 61 62 63 64 65 67 67 68 70 72 73 73 71 68 65 67 68 64 61 48 39 54 63 49 45 48 48 53 56 56 60 61 63 65 65 65 66 67
21 22 23 26 28 27 25 24 24 24 25 26 26 26 28 30 32 34 35 36 37 38 39 40 40 40 41 42 43 44 46 48 50 50 51 51 51 50 50 51 51 52 53 54 54 55 55 54 54 56 60 62 63 64 65 66 67 69 71 73 74 73 70 66 63 66 66 63 59 42 31 47 58 49 49 52 51 56 58 58 61 63 65 67 68 69 69 69
19 19 22 27 30 30 28 26 26 27 28 29 30 30 31 33 34 35 36 37 39 40 40 41 41 41 41 43 44 45 47 49 51 52 52 52 51 50 50 51 51 52 53 53 54 55 55 54 54 56 59 61 63 66 67 68 69 70 72 74 74 72 70 67 62 61 60 57 52 38 30 45 57 53 53 54 54 58 60 61 64 66 68 69 70 72 72 73
20 21 27 31 29 26 27 28 29 30 31 32 33 33 34 34 35 37 38 39 40 40 40 41 41 41 42 44 46 47 49 50 52 53 52 52 51 50 50 51 52 53 53 54 55 56 56 55 55 57 59 61 64 67 68 69 70 71 73 74 73 71 69 67 61 55 51 47 44 37 34 45 57 58 57 57 57 60 62 64 66 68 71 72 72 74 75 77
25 27 30 31 27 23 24 26 28 30 31 32 33 34 35 36 37 39 40 41 40 40 40 40 42 43 44 46 48 49 51 51 52 52 52 51 51 51 52 53 53 54 54 55 56 57 57 57 57 57 58 61 65 68 70 71 71 71 73 73 71 69 66 62 56 50 44 41 43 42 37 43 55 59 59 60 60 62 64 67 69 71 73 74 75 76 77 80
28 29 29 29 27 24 23 25 27 29 32 33 33 34 35 37 39 40 40 40 39 39 40 41 43 44 46 48 49 51 53 53 52 51 52 51 51 52 53 54 55 55 56 56 56 57 58 59 60 59 58 59 62 65 68 68 68 69 70 70 68 65 60 54 49 45 41 40 46 48 41 43 55 60 59 62 64 65 67 70 74 77 78 78 79 80 81 83
29 29 28 28 27 26 25 27 28 30 31 32 33 34 35 36 37 38 38 38 39 40 41 42 44 46 48 50 51 52 54 54 52 51 51 51 52 53 54 55 56 56 57 57 57 58 58 60 63 63 61 60 60 61 60 60 62 65 66 65 62 57 52 48 45 43 42 41 47 52 47 45 55 61 61 64 67 68 70 72 76 80 82 84 84 84 85 86
30 30 29 29 29 29 29 30 30 30 30 31 32 32 33 34 36 37 38 39 40 40 41 43 46 48 50 52 52 53 54 54 52 51 51 51 52 53 54 55 56 57 58 59 59 59 58 60 63 63 62 63 64 63 60 59 60 62 62 58 53 47 45 46 46 46 46 45 47 55 55 51 55 60 62 64 67 69 71 74 77 80 83 85 86 86 87 89
30 31 32 32 33 33 32 31 30 29 30 31 32 32 33 35 37 38 38 39 40 42 44 46 48 50 51 52 53 53 54 53 52 51 51 52 53 54 55 56 57 58 59 60 60 59 57 57 59 59 59 63 65 64 62 60 59 59 56 49 45 43 45 48 50 51 52 52 51 55 60 60 60 62 65 68 70 72 74 76 78 82 84 85 86 87 89 91
31 33 34 34 34 34 32 31 30 30 31 32 32 33 35 37 38 38 39 41 43 45 47 49 50 51 52 53 53 53 53 52 52 52 52 53 54 54 56 57 59 59 60 60 59 58 55 53 54 54 57 63 65 62 60 59 56 53 48 43 43 47 49 51 55 57 58 59 58 58 62 66 67 67 69 72 75 76 77 79 81 85 87 87 88 90 92 95
31 32 33 33 33 33 32 31 31 32 33 34 34 35 37 37 38 39 41 44 46 47 49 50 51 52 53 53 53 53 52 51 52 52 53 54 55 56 57 58 59 59 59 58 57 55 52 51 53 53 54 60 63 59 56 52 48 46 45 45 47 51 53 55 59 62 62 63 64 64 65 68 72 73 73 75 78 79 81 83 86 88 90 92 93 95 97 99
28 29 30 30 31 31 32 32 33 33 34 35 35 36 37 38 40 42 44 46 48 49 51 51 52 53 53 54 53 52 51 51 51 52 53 54 56 57 57 58 58 57 56 55 54 54 53 52 52 51 51 55 56 53 49 46 44 45 47 50 52 54 57 60 63 66 67 67 68 70 69 70 73 76 76 78 81 83 86 88 91 93 95 96 99 101 102 103
26 27 28 28 29 30 31 32 33 33 34 35 36 37 39 40 42 45 47 48 49 50 52 52 53 53 53 53 52 51 51 51 52 53 54 55 55 56 56 56 55 53 53 53 53 54 53 51 50 48 46 47 46 44 45 46 46 48 50 52 55 58 60 63 66 70 72 70 71 73 73 74 76 77 79 81 84 88 92 95 98 99 99 100 102 105 107 109
24 25 25 26 27 29 30 31 32 33 34 36 37 39 41 43 45 47 48 50 51 51 52 52 53 53 52 51 51 51 51 51 52 53 54 54 54 54 54 53 52 52 52 52 52 51 50 48 45 41 38 39 40 41 45 49 49 51 53 55 58 60 61 65 69 73 76 75 75 76 78 79 81 83 84 84 87 91 95 99 102 104 104 104 106 108 111 114
Wind_Direction
234 231 227 225 224 223 223 222 220 220 221 222 224 226 228 231 233 234 236 238 241 242 244 246 247 248 250 252 254 257 260 262 264 266 268 271 273 275 277 278 279 280 281 282 283 284 285 286 287 288 289 289 290 291 293 293 295 296 297 298 299 300 300 300 301 301 301 301 300 301 301 301 301 302 305 308 311 313 312 312 311 311 310 310 309 308 308 307
245 239 232 227 223 223 223 222 221 221 221 222 223 226 228 230 233 235 237 238 240 243 245 246 248 249 251 252 254 257 260 263 265 268 270 272 275 277 278 280 281 281 282 283 284 285 286 287 288 289 290 291 292 293 294 295 296 298 299 300 301 301 302 302 302 302 302 301 301 302 302 303 304 307 310 313 313 313 312 311 311 310 310 309 308 307 306 306
253 245 237 229 223 222 222 221 221 221 222 222 223 225 227 229 231 234 236 238 240 242 245 247 249 250 252 254 256 258 260 263 266 269 271 273 275 277 278 280 281 282 283 284 285 286 287 288 289 291 292 293 294 295 296 298 299 300 301 302 302 303 303 303 303 302 302 302 302 303 304 306 309 312 314 314 313 313 312 311 311 310 310 309 308 307 306 306
257 247 239 231 222 220 220 218 217 219 221 222 223 225 227 229 231 233 235 238 240 242 245 247 249 251 254 255 257 259 261 264 266 268 271 273 274 276 278 279 281 282 283 285 287 288 289 291 292 293 294 295 296 297 299 301 302 303 303 303 303 303 303 303 302 301 302 303 304 306 309 312 314 314 314 314 313 313 312 312 311 311 310 309 308 308 307 307
255 244 236 229 220 216 216 215 214 217 219 220 222 224 226 229 231 234 235 237 240 242 245 247 249 252 254 256 258 260 262 264 267 268 271 273 274 276 277 279 280 282 284 286 288 289 291 292 293 293 294 296 298 300 302 303 304 304 304 305 304 304 303 302 301 301 302 305 308 311 313 314 315 314 314 314 314 313 313 312 312 312 311 309 309 309 309 309
244 236 229 222 215 211 210 210 210 213 215 216 219 222 225 227 230 235 235 236 239 242 244 247 249 252 254 256 258 260 262 265 266 268 271 273 275 276 278 280 282 283 285 287 289 290 291 292 293 294 296 298 301 303 304 305 305 306 306 305 304 303 302 301 302 303 305 308 312 314 315 315 314 314 315 315 314 314 313 313 313 312 311 310 310 310 311 312
223 227 222 210 205 206 205 205 206 209 212 213 217 219 222 225 228 233 235 235 239 241 243 246 249 251 254 256 258 261 263 265 267 269 271 273 275 277 279 281 284 285 287 289 291 292 293 294 295 297 300 302 304 305 306 306 307 307 306 305 303 302 302 303 304 306 309 311 312 314 315 314 314 315 315 315 315 314 314 313 313 312 312 312 312 313 314 314
205 208 211 201 194 197 200 200 201 205 209 211 215 217 218 221 225 231 234 235 239 242 244 246 249 251 254 256 259 262 264 266 268 270 272 274 276 278 281 283 286 288 290 291 293 294 296 297 299 301 303 304 305 307 308 308 307 306 304 303 302 302 303 305 307 310 311 311 312 314 314 314 314 314 315 315 314 314 314 313 313 313 313 313 314 315 315 316
205 197 194 197 191 191 196 197 198 202 207 211 215 216 215 217 225 231 232 234 239 243 245 247 250 252 255 258 260 263 265 267 268 271 273 275 278 280 283 286 288 290 292 293 295 297 298 299 301 303 304 306 308 309 309 308 306 305 303 302 302 303 304 306 309 310 310 311 312 313 313 313 314 314 314 314 314 314 313 313 313 313 314 314 315 316 316 316
212 202 187 193 193 189 191 194 197 202 207 210 213 216 215 217 226 233 233 235 238 242 246 249 252 254 257 259 262 264 266 267 269 271 274 277 280 283 287 289 291 293 294 295 297 298 299 301 303 304 306 308 309 309 308 306 305 303 302 302 302 303 304 307 309 310 310 312 313 312 313 314 313 313 313 313 313 313 313 313 313 314 314 315 315 316 316 316
210 207 192 197 199 194 195 199 202 207 212 213 212 215 216 218 224 230 233 238 239 242 247 251 254 256 258 260 263 265 267 268 270 272 276 280 283 287 290 291 293 294 294 296 297 298 300 302 304 306 308 309 309 308 306 305 303 302 302 302 303 304 305 307 308 310 312 312 312 312 313 314 313 312 312 312 312 313 313 314 314 314 315 315 315 316 316 316
208 208 196 195 201 202 206 208 209 212 217 218 217 218 219 222 226 228 233 241 245 247 251 253 256 258 259 261 263 265 267 270 272 275 279 283 287 290 291 292 293 294 295 296 298 299 301 303 305 307 308 308 308 306 304 303 302 301 301 302 303 304 306 307 309 311 312 312 311 311 311 312 312 310 311 312 312 313 314 314 315 315 315 315 316 316 316 316
214 211 201 191 197 209 218 218 214 216 219 221 221 221 223 226 231 234 239 246 251 252 253 254 256 258 260 263 265 268 270 273 276 279 283 286 288 290 291 291 292 294 296 297 299 300 302 304 306 308 308 307 305 304 302 301 301 300 300 301 302 304 306 308 310 311 311 310 309 310 310 310 311 310 311 312 313 314 315 315 316 315 316 316 316 316 316 316
232 219 214 203 206 217 225 222 218 220 222 223 222 223 225 229 234 240 243 248 251 252 254 256 259 262 264 266 269 272 275 277 280 283 285 287 289 290 290 291 293 294 296 298 299 301 303 305 306 307 306 304 303 302 300 299 299 299 299 300 301 303 306 309 310 309 308 307 307 308 308 309 311 311 311 313 314 316 316 317 316 316 316 316 316 316 316 316
248 230 225 220 220 223 227 228 225 223 225 226 227 227 229 233 238 242 245 248 251 254 258 261 264 266 269 272 274 277 279 281 284 286 287 288 289 289 290 291 292 294 295 297 299 301 304 305 305 305 304 302 301 300 299 298 298 298 298 299 301 305 307 306 305 304 304 304 305 308 308 309 311 312 312 314 315 317 317 317 317 316 316 316 316 315 315 316
248 243 234 230 229 227 230 238 237 232 230 230 231 232 234 236 240 244 248 252 255 258 262 266 269 272 275 278 280 282 284 285 287 288 290 290 290 289 289 290 291 293 296 298 300 303 304 304 303 303 302 300 299 298 297 297 296 297 298 301 303 304 304 303 302 303 303 305 307 310 309 309 311 312 313 314 315 317 317 317 316 316 316 315 315 315 315 316
242 244 242 238 237 229 226 234 241 242 241 240 239 241 242 243 245 247 249 252 255 258 263 268 273 276 280 283 285 286 288 289 290 290 290 289 288 288 289 291 293 295 298 300 302 303 303 303 302 301 300 299 298 297 296 296 296 298 300 301 301 301 301 302 303 304 305 308 310 312 310 309 311 312 314 315 316 317 317 316 316 315 315 315 315 315 315 315
240 240 241 241 240 234 227 229 238 244 245 245 247 249 250 252 251 247 249 256 259 262 268 273 277 281 284 286 289 291 291 291 291 290 288 287 287 289 291 294 296 299 301 302 303 303 303 302 301 300 299 298 297 297 297 297 298 299 300 300 301 302 303 303 305 306 309 311 312 312 311 310 311 312 313 314 315 316 315 315 315 315 314 315 315 315 315 315
241 238 238 240 240 238 235 233 235 241 244 245 249 251 253 258 259 254 257 264 266 268 273 278 280 282 285 289 291 291 289 288 287 287 287 287 290 292 294 296 299 301 302 302 303 302 302 301 300 299 298 298 297 296 297 297 298 299 300 302 303 304 305 305 306 308 311 312 312 313 311 311 312 312 313 314 314 314 314 314 314 314 315 315 316 315 315 314
243 240 237 239 240 240 240 239 238 241 243 246 248 246 243 250 259 261 264 267 266 268 272 273 276 279 284 288 288 286 284 284 285 286 289 291 293 295 297 298 300 302 302 301 301 300 300 299 298 298 297 296 296 295 296 297 299 301 303 304 304 305 306 307 308 310 312 312 312 313 312 312 312 313 313 314 314 314 314 314 314 314 315 315 315 315 314 314
246 243 239 239 241 241 241 241 240 241 243 245 243 242 242 246 254 260 264 267 267 270 273 274 279 283 284 283 281 281 282 284 288 292 295 296 297 297 298 300 302 302 301 300 299 299 298 297 296 296 296 295 296 296 298 300 301 303 304 305 305 306 307 308 309 310 311 311 312 313 313 312 313 313 313 314 314 314 314 314 315 315 315 315 315 314 314 313
248 246 243 241 241 241 240 240 241 241 242 242 240 241 245 249 251 254 259 263 267 272 275 278 282 282 278 277 278 281 285 290 295 298 298 297 296 297 298 300 301 300 300 299 298 297 296 295 295 296 296 296 297 299 301 302 303 304 304 305 305 307 308 309 309 309 310 311 311 312 313 313 313 313 313 314 314 314 314 314 315 315 315 315 314 314 314 314
249 248 246 243 241 239 238 238 239 240 240 241 240 240 244 247 248 250 255 261 267 272 273 273 274 272 274 278 281 285 289 296 300 300 298 295 295 296 298 299 300 300 299 299 297 296 295 295 296 296 297 298 299 300 302 302 303 303 304 305 305 306 307 308 308 309 310 310 311 312 313 312 312 313 313 313 313 313 314 314 315 315 315 314 314 314 314 314
252 251 249 246 242 238 236 235 236 237 238 240 241 241 242 244 246 250 256 261 266 268 265 264 266 271 277 280 282 288 295 301 302 301 298 297 296 297 299 300 300 300 299 297 296 295 295 296 296 298 298 299 300 301 301 302 302 303 303 304 305 306 307 307 308 309 310 311 311 311 313 312 311 312 313 312 313 313 314 314 315 315 314 314 314 315 315 316
255 253 251 246 241 236 233 233 233 235 237 238 239 239 239 242 246 249 254 258 259 257 257 261 268 274 278 281 286 293 300 304 303 302 300 299 299 300 301 301 300 300 298 297 295 295 295 296 297 299 299 300 300 301 301 302 303 304 304 305 306 307 307 308 309 309 310 311 311 311 312 312 311 311 312 312 313 314 314 315 315 314 314 314 315 316 316 317
257 254 250 244 238 234 230 229 230 232 234 231 232 237 237 237 239 243 247 251 252 253 257 263 270 275 280 286 291 297 302 304 304 303 303 302 302 302 302 301 300 299 297 295 294 294 295 296 298 299 299 300 301 302 302 303 304 305 305 306 307 307 308 309 309 310 310 310 311 311 311 312 311 311 313 314 314 314 314 314 314 314 315 315 315 316 318 319
256 252 246 240 233 229 227 226 227 230 227 220 222 233 236 231 234 243 246 248 249 253 259 265 271 277 284 290 295 300 303 304 304 305 305 304 304 303 302 301 300 298 296 295 294 294 294 296 298 299 300 301 302 303 303 303 304 305 305 306 307 307 308 309 309 310 310 311 312 312 311 312 312 311 313 314 314 314 314 314 315 315 315 315 316 317 319 320
250 245 238 232 227 224 222 222 225 226 223 220 223 231 235 236 242 245 244 246 249 256 262 268 274 281 288 293 297 300 302 303 305 306 306 305 304 303 302 300 299 298 296 294 293 293 295 296 298 299 300 301 302 303 304 304 305 305 306 306 307 308 308 309 309 310 311 312 312 312 312 312 313 312 313 315 314 315 315 315 315 315 315 315 317 319 320 319
242 235 229 224 220 218 217 218 219 216 215 219 226 231 232 238 242 242 243 247 252 260 267 273 279 285 290 293 296 299 302 304 306 306 306 305 304 303 302 301 300 297 295 294 294 294 295 297 298 299 300 301 302 303 304 305 305 305 306 306 307 307 308 309 310 311 312 312 313 313 312 312 313 312 313 315 315 315 315 315 315 315 315 316 318 319 319 318
232 226 221 217 214 213 213 212 207 205 210 217 225 229 227 230 237 241 245 249 256 265 272 277 282 287 290 292 295 299 301 304 306 306 306 306 305 304 303 302 300 298 296 295 295 295 296 297 298 299 300 301 302 303 304 304 305 305 306 306 307 307 309 310 310 311 312 312 313 313 312 313 313 313 314 315 315 315 315 316 315 315 316 317 319 320 320 320
222 217 213 210 209 210 209 205 203 207 213 217 224 231 230 232 239 245 249 255 263 270 274 279 284 287 289 291 295 298 301 305 307 307 307 307 306 305 304 302 301 299 298 297 297 297 297 298 299 300 301 301 302 302 303 304 305 306 306 307 307 308 309 310 310 310 311 312 313 313 313 313 313 313 314 315 314 314 315 316 316 315 317 320 322 323 323 324
213 210 208 207 208 209 206 204 207 211 216 225 236 240 241 242 245 250 255 262 267 271 275 280 283 286 288 292 295 298 301 305 307 307 308 307 306 305 304 303 301 300 299 298 298 299 299 300 300 301 301 301 302 303 304 305 306 307 308 308 308 308 308 308 308 309 310 312 313 314 314 314 314 313 314 316 315 315 317 318 317 316 320 324 325 326 325 325
205 204 206 206 203 202 201 202 206 214 222 230 233 235 239 244 248 252 259 264 268 272 277 280 282 284 288 293 296 298 302 305 306 307 308 307 307 305 304 304 303 301 300 300 300 300 301 301 301 302 302 303 304 304 305 306 307 308 308 308 308 308 307 307 308 309 311 314 316 317 316 315 314 313 314 317 316 316 320 321 318 320 325 327 326 326 326 325
199 200 201 199 195 194 198 202 207 217 224 224 225 230 238 246 251 255 260 265 269 273 275 277 280 284 289 293 295 297 302 304 305 307 308 308 307 305 305 305 304 303 302 302 302 301 301 301 302 302 303 304 305 305 306 306 307 308 308 308 308 308 308 309 310 311 315 318 319 320 318 315 313 312 314 318 317 319 325 323 320 324 326 326 325 326 325 324
199 199 195 194 195 192 195 205 213 218 221 222 226 233 243 251 255 258 263 266 269 271 274 278 282 287 290 293 294 298 302 304 306 308 309 308 307 306 305 305 304 303 303 302 302 302 302 302 302 303 304 304 305 306 306 306 307 307 307 307 307 308 309 310 312 314 318 321 322 320 318 315 313 313 316 318 318 323 327 322 322 325 324 324 324 324 324 323
202 198 193 196 201 199 197 204 212 218 222 226 232 239 246 252 256 260 263 265 269 273 278 283 286 289 291 293 295 298 302 305 306 308 309 308 307 306 306 306 304 304 304 303 303 303 303 304 304 304 304 305 306 306 306 306 307 307 307 307 308 308 309 311 313 317 319 322 321 319 317 314 311 312 316 317 322 327 324 321 324 323 322 323 323 322 323 323
205 200 197 200 206 208 209 213 217 223 228 233 239 246 251 254 257 259 261 265 272 277 282 285 288 290 292 292 294 298 302 305 306 307 308 308 307 306 306 306 305 304 304 304 305 304 305 305 305 305 305 306 306 307 307 307 307 308 308 308 308 309 311 312 316 319 319 320 319 318 319 315 309 311 315 318 325 327 323 323 324 322 322 322 321 322 323 323
206 202 200 203 208 213 219 224 226 229 234 241 247 251 253 254 256 257 261 267 274 280 284 287 289 292 292 291 293 298 302 305 306 307 308 307 307 306 306 306 305 305 305 306 306 306 306 307 307 306 306 306 307 307 307 307 308 309 310 310 310 311 313 314 318 320 318 318 318 319 323 316 309 310 316 320 326 325 323 324 324 322 322 321 321 323 323 324
203 201 201 205 211 218 225 229 233 238 242 246 248 249 250 253 257 261 265 271 277 282 286 288 289 291 291 290 293 298 302 304 305 306 307 307 306 306 306 306 306 306 306 306 307 306 307 308 308 307 307 307 307 307 307 308 309 310 311 311 311 312 314 316 320 320 318 318 318 323 330 317 309 313 319 322 326 324 322 323 322 321 321 321 322 323 324 324
201 199 203 209 212 216 224 230 233 236 239 241 243 248 253 257 261 265 269 274 279 283 286 288 289 289 290 291 294 298 301 304 305 306 307 307 306 306 306 306 307 307 307 307 307 307 307 308 308 308 307 307 308 308 308 309 310 311 312 311 312 313 314 317 321 320 318 318 319 327 334 316 311 317 322 323 325 322 321 322 321 321 321 321 322 323 323 324
200 198 209 219 220 217 220 225 226 229 233 237 242 249 255 259 264 269 273 277 281 284 286 287 287 288 290 293 295 298 300 303 305 306 307 307 306 306 306 307 307 307 307 307 307 307 307 308 309 308 308 308 309 309 310 311 312 312 312 312 312 313 315 319 322 319 317 317 319 329 334 317 313 319 322 323 325 322 321 322 322 321 321 321 322 322 323 323
202 203 214 224 229 228 226 227 229 232 236 241 246 250 256 262 269 274 278 281 284 285 285 285 286 289 292 294 296 298 300 304 306 306 307 306 306 306 306 307 307 307 307 307 307 307 308 309 309 309 310 310 310 311 311 312 312 313 312 312 312 314 317 320 321 318 317 318 319 326 331 320 315 319 321 323 323 321 321 322 321 321 320 320 321 322 323 324
207 211 219 225 234 241 240 239 241 244 247 251 255 259 264 270 274 277 281 283 284 284 283 284 286 290 294 296 297 298 300 304 306 306 306 305 305 306 307 307 307 307 307 308 308 309 310 311 310 311 312 312 312 312 311 312 312 312 312 311 312 315 319 320 319 318 321 323 321 322 328 323 316 317 320 321 321 321 321 322 321 320 319 320 321 322 323 323
213 219 225 229 236 244 249 252 254 255 257 260 264 268 272 275 276 278 280 282 282 282 283 285 288 293 296 297 298 299 301 304 306 305 304 304 305 306 307 307 307 308 309 309 310 311 312 312 312 312 312 312 311 309 309 310 311 311 310 311 314 318 320 319 318 320 323 325 320 318 324 323 316 316 320 320 320 322 322 322 321 319 319 320 321 322 322 322
221 226 229 232 238 246 252 256 258 259 261 264 267 271 274 276 277 278 279 280 280 282 286 289 293 296 297 298 299 301 303 305 305 304 303 303 305 306 307 308 308 309 310 311 311 312 313 314 313 313 313 312 309 306 306 308 309 310 310 312 317 320 319 317 318 320 321 322 319 316 319 322 316 316 320 321 321 322 322 321 320 319 318 319 320 321 321 320
226 231 233 236 242 248 253 257 259 260 263 266 269 271 273 275 276 278 278 279 282 286 291 293 295 297 298 299 301 302 303 304 304 303 303 304 305 306 308 309 310 310 310 311 312 313 314 314 313 313 313 312 310 308 309 311 311 311 312 316 320 320 318 317 318 319 318 320 319 316 317 320 317 318 320 320 319 321 320 320 319 317 316 317 319 320 320 319
230 233 236 240 244 249 254 257 259 261 264 267 269 270 271 274 277 278 280 283 287 292 294 295 296 297 298 300 302 303 304 304 303 303 304 305 306 307 309 310 310 310 311 312 312 313 314 314 312 313 313 311 310 310 312 314 313 313 316 321 323 319 318 318 318 318 319 319 319 318 318 320 320 320 320 320 319 320 319 318 317 315 315 317 318 319 318 319
235 237 239 242 245 249 253 257 260 262 266 269 270 269 271 275 279 281 285 289 292 294 295 295 297 298 299 301 302 303 303 303 303 303 305 306 307 308 309 310 310 311 311 311 312 312 314 314 313 314 315 312 310 311 314 314 315 316 321 324 322 318 318 319 319 319 319 319 321 321 321 321 321 321 321 320 319 319 318 318 317 315 315 317 318 318 318 319
239 241 244 246 248 251 254 259 262 265 268 270 269 269 272 278 282 286 288 291 293 294 295 296 298 299 300 302 303 303 303 302 303 304 306 307 308 309 310 310 310 310 310 311 312 313 315 316 315 316 315 311 309 312 315 316 318 320 323 323 321 320 320 321 320 319 320 321 322 322 322 322 321 321 321 320 319 319 319 318 317 316 316 318 319 319 319 319
244 246 249 250 252 254 258 261 264 266 268 270 270 273 277 282 286 288 289 291 293 295 296 297 298 300 301 302 303 302 302 303 304 305 306 307 308 309 310 310 309 310 310 312 314 315 317 318 315 315 314 309 310 315 316 318 320 322 322 323 321 321 321 322 321 320 320 322 323 322 322 322 320 320 320 320 319 319 319 319 317 317 318 319 319 319 319 319
248 249 251 253 254 256 259 262 264 266 269 271 274 278 282 285 287 288 290 292 294 296 297 298 299 300 301 302 302 302 303 304 304 305 306 307 308 309 309 308 309 310 312 314 317 317 317 316 314 315 314 311 313 317 317 317 321 322 322 322 321 321 323 323 322 320 320 322 322 321 321 320 319 319 320 320 321 321 321 320 318 317 318 319 319 319 319 319
246 249 251 253 256 259 261 264 266 268 271 275 279 282 284 286 287 289 291 293 295 296 297 298 300 301 301 302 302 302 303 304 305 306 307 308 308 308 308 309 310 313 315 317 318 316 315 314 316 319 319 315 315 317 316 317 320 322 322 321 320 322 324 324 322 319 319 321 321 320 320 320 320 320 320 321 322 321 321 319 317 317 318 319 319 319 319 319